• In Latvia
  • List of Countries
  • For 7 days
  • Water Temperature
  • Satellite Maps
  • Weather Map
  • Weather Widgets
  • user-avatar
    Login

    Hourly Weather Newcastle

    Today, 20 August, Sunday

    Time Temperature Precipitation Wind Pressure Humidity
    00:00 +6°C° 0.3 mm 7 mps 765 mmHg 61%
    01:00 +5°C° 0.3 mm 8 mps 765 mmHg 61%
    02:00 +5°C° 0.2 mm 8 mps 765 mmHg 60%
    03:00 +4°C° 0.2 mm 7 mps 765 mmHg 59%
    04:00 +4°C° 0 mm 6 mps 765 mmHg 60%
    05:00 +3°C° 0.1 mm 6 mps 765 mmHg 59%
    06:00 +3°C° 0.1 mm 6 mps 766 mmHg 58%
    07:00 +3°C° 0.1 mm 7 mps 766 mmHg 57%
    08:00 +5°C° 0.1 mm 6 mps 766 mmHg 53%
    09:00 +9°C° 0.1 mm 6 mps 766 mmHg 48%
    10:00 +11°C° 0 mm 6 mps 766 mmHg 42%
    11:00 +13°C° 0.2 mm 6 mps 766 mmHg 45%
    12:00 +14°C° 0.2 mm 5 mps 765 mmHg 49%
    13:00 +15°C° 0.2 mm 5 mps 765 mmHg 53%
    14:00 +15°C° 0.2 mm 5 mps 765 mmHg 57%
    15:00 +15°C° 0.2 mm 4 mps 765 mmHg 62%
    16:00 +15°C° 0.2 mm 4 mps 765 mmHg 66%
    17:00 +13°C° 0.1 mm 4 mps 765 mmHg 75%
    18:00 +11°C° 0.1 mm 3 mps 765 mmHg 84%
    19:00 +10°C° 0.1 mm 2 mps 765 mmHg 93%
    20:00 +10°C° 0.1 mm 2 mps 765 mmHg 94%
    21:00 +9°C° 0.1 mm 2 mps 766 mmHg 96%
    22:00 +9°C° 0.1 mm 2 mps 766 mmHg 97%
    23:00 +8°C° 0.1 mm 2 mps 766 mmHg 97%

    Tomorrow, 21 August, Monday

    Time Temperature Precipitation Wind Pressure Humidity
    00:00 +8°C° 0.1 mm 2 mps 765 mmHg 97%
    01:00 +8°C° 0.1 mm 2 mps 765 mmHg 97%
    02:00 +8°C° 0 mm 2 mps 765 mmHg 97%
    03:00 +7°C° 0 mm 2 mps 765 mmHg 97%
    04:00 +7°C° 0 mm 2 mps 764 mmHg 97%
    05:00 +7°C° 0 mm 2 mps 764 mmHg 96%
    06:00 +7°C° 0 mm 2 mps 765 mmHg 95%
    07:00 +7°C° 0 mm 2 mps 765 mmHg 94%
    08:00 +9°C° 0 mm 2 mps 764 mmHg 88%
    09:00 +12°C° 0 mm 2 mps 764 mmHg 81%
    10:00 +13°C° 0 mm 2 mps 764 mmHg 74%
    11:00 +15°C° 0 mm 2 mps 763 mmHg 62%
    12:00 +18°C° 0 mm 3 mps 763 mmHg 51%
    13:00 +20°C° 0 mm 3 mps 762 mmHg 39%
    14:00 +19°C° 0 mm 3 mps 762 mmHg 41%
    15:00 +18°C° 0 mm 3 mps 761 mmHg 42%
    16:00 +18°C° 0 mm 3 mps 761 mmHg 44%
    17:00 +17°C° 0 mm 3 mps 761 mmHg 46%
    18:00 +14°C° 0 mm 3 mps 762 mmHg 48%
    19:00 +13°C° 0 mm 3 mps 762 mmHg 51%
    20:00 +13°C° 0 mm 3 mps 762 mmHg 52%
    21:00 +12°C° 0 mm 3 mps 763 mmHg 54%
    22:00 +12°C° 0 mm 3 mps 763 mmHg 56%
    23:00 +12°C° 0 mm 2 mps 763 mmHg 59%

    Day after tomorrow, 22 August, Tuesday

    Time Temperature Precipitation Wind Pressure Humidity
    00:00 +10°C° 0 mm 2 mps 762 mmHg 62%
    01:00 +10°C° 0 mm 2 mps 762 mmHg 65%
    02:00 +10°C° 0 mm 1 mps 762 mmHg 68%
    03:00 +9°C° 0 mm 1 mps 762 mmHg 70%
    04:00 +9°C° 0 mm 1 mps 762 mmHg 73%
    05:00 +9°C° 0 mm 1 mps 762 mmHg 73%
    06:00 +9°C° 0 mm 1 mps 763 mmHg 72%
    07:00 +9°C° 0 mm 1 mps 763 mmHg 71%
    08:00 +12°C° 0 mm 1 mps 763 mmHg 61%
    09:00 +16°C° 0 mm 1 mps 763 mmHg 50%
    10:00 +20°C° 0 mm 1 mps 763 mmHg 39%
    11:00 +21°C° 0 mm 1 mps 763 mmHg 36%
    12:00 +23°C° 0 mm 1 mps 762 mmHg 33%
    13:00 +24°C° 0 mm 1 mps 762 mmHg 31%
    14:00 +23°C° 0 mm 2 mps 762 mmHg 35%
    15:00 +21°C° 0 mm 2 mps 762 mmHg 39%
    16:00 +20°C° 0 mm 3 mps 762 mmHg 43%
    17:00 +18°C° 0 mm 3 mps 763 mmHg 54%
    18:00 +16°C° 0 mm 3 mps 763 mmHg 66%
    19:00 +12°C° 0 mm 3 mps 764 mmHg 77%
    20:00 +12°C° 0 mm 3 mps 764 mmHg 81%
    21:00 +12°C° 0 mm 2 mps 765 mmHg 84%
    22:00 +12°C° 0 mm 2 mps 765 mmHg 87%
    23:00 +10°C° 0 mm 2 mps 765 mmHg 89%

    23 August, Wednesday

    Time Temperature Precipitation Wind Pressure Humidity
    00:00 +10°C° 0 mm 2 mps 765 mmHg 91%
    01:00 +9°C° 0 mm 2 mps 765 mmHg 93%
    02:00 +9°C° 0 mm 2 mps 764 mmHg 93%
    03:00 +9°C° 0 mm 2 mps 764 mmHg 94%
    04:00 +9°C° 0 mm 2 mps 764 mmHg 94%
    05:00 +8°C° 0 mm 2 mps 764 mmHg 93%
    06:00 +8°C° 0 mm 2 mps 765 mmHg 92%
    07:00 +8°C° 0 mm 2 mps 765 mmHg 90%
    08:00 +13°C° 0 mm 2 mps 765 mmHg 76%
    09:00 +16°C° 0 mm 2 mps 765 mmHg 62%
    10:00 +19°C° 0 mm 2 mps 764 mmHg 48%
    11:00 +21°C° 0 mm 2 mps 764 mmHg 44%
    12:00 +23°C° 0 mm 2 mps 763 mmHg 39%
    13:00 +25°C° 0 mm 3 mps 762 mmHg 34%
    14:00 +25°C° 0 mm 3 mps 762 mmHg 36%
    15:00 +24°C° 0 mm 3 mps 762 mmHg 38%
    16:00 +23°C° 0 mm 4 mps 761 mmHg 39%
    17:00 +21°C° 0 mm 4 mps 762 mmHg 49%
    18:00 +18°C° 0 mm 4 mps 762 mmHg 58%
    19:00 +15°C° 0 mm 5 mps 763 mmHg 67%
    20:00 +14°C° 0 mm 5 mps 763 mmHg 69%
    21:00 +13°C° 0 mm 4 mps 763 mmHg 71%
    22:00 +12°C° 0 mm 4 mps 763 mmHg 73%
    23:00 +12°C° 0 mm 4 mps 763 mmHg 72%

    24 August, Thursday

    Time Temperature Precipitation Wind Pressure Humidity
    00:00 +10°C° 0 mm 5 mps 763 mmHg 72%
    01:00 +10°C° 0 mm 5 mps 763 mmHg 71%
    02:00 +9°C° 0 mm 5 mps 763 mmHg 74%
    03:00 +8°C° 0 mm 4 mps 763 mmHg 77%
    04:00 +8°C° 0 mm 4 mps 763 mmHg 80%
    05:00 +8°C° 0 mm 5 mps 763 mmHg 80%
    06:00 +8°C° 0 mm 5 mps 764 mmHg 79%
    07:00 +8°C° 0 mm 5 mps 764 mmHg 79%
    08:00 +10°C° 0.3 mm 6 mps 764 mmHg 77%
    09:00 +13°C° 0.3 mm 6 mps 764 mmHg 76%
    10:00 +15°C° 0.3 mm 7 mps 764 mmHg 74%
    11:00 +14°C° 0.8 mm 7 mps 764 mmHg 77%
    12:00 +14°C° 0.8 mm 7 mps 764 mmHg 79%
    13:00 +14°C° 0.8 mm 7 mps 764 mmHg 82%
    14:00 +14°C° 0.7 mm 7 mps 764 mmHg 80%
    15:00 +14°C° 0.7 mm 7 mps 764 mmHg 78%
    16:00 +14°C° 0.7 mm 7 mps 764 mmHg 76%
    17:00 +13°C° 0.4 mm 6 mps 765 mmHg 80%
    18:00 +11°C° 0.4 mm 6 mps 765 mmHg 83%
    19:00 +10°C° 0.4 mm 6 mps 766 mmHg 87%
    20:00 +10°C° 0.2 mm 5 mps 766 mmHg 87%
    21:00 +9°C° 0.2 mm 5 mps 766 mmHg 88%
    22:00 +9°C° 0.2 mm 5 mps 767 mmHg 88%
    23:00 +9°C° 0.1 mm 5 mps 767 mmHg 88%

    25 August, Friday

    Time Temperature Precipitation Wind Pressure Humidity
    00:00 +8°C° 0.1 mm 5 mps 766 mmHg 88%
    01:00 +8°C° 0.1 mm 4 mps 766 mmHg 88%
    02:00 +7°C° 0 mm 4 mps 766 mmHg 89%
    03:00 +7°C° 0 mm 5 mps 766 mmHg 89%
    04:00 +6°C° 0 mm 5 mps 766 mmHg 89%
    05:00 +6°C° 0.1 mm 5 mps 766 mmHg 89%
    06:00 +6°C° 0.1 mm 4 mps 767 mmHg 89%
    07:00 +6°C° 0.1 mm 4 mps 767 mmHg 88%
    08:00 +10°C° 0.2 mm 4 mps 767 mmHg 80%
    09:00 +12°C° 0.2 mm 4 mps 767 mmHg 71%
    10:00 +15°C° 0.2 mm 4 mps 767 mmHg 62%
    11:00 +15°C° 0.3 mm 4 mps 766 mmHg 60%
    12:00 +17°C° 0.3 mm 4 mps 766 mmHg 58%
    13:00 +18°C° 0.3 mm 4 mps 765 mmHg 57%
    14:00 +17°C° 0.2 mm 4 mps 765 mmHg 58%
    15:00 +17°C° 0.2 mm 4 mps 765 mmHg 60%
    16:00 +17°C° 0.2 mm 4 mps 765 mmHg 61%
    17:00 +14°C° 0 mm 4 mps 765 mmHg 70%
    18:00 +12°C° 0 mm 3 mps 766 mmHg 79%
    19:00 +10°C° 0 mm 2 mps 766 mmHg 88%
    20:00 +10°C° 0 mm 2 mps 767 mmHg 89%
    21:00 +9°C° 0 mm 2 mps 767 mmHg 91%
    22:00 +10°C° 0 mm 1 mps 767 mmHg 93%
    23:00 +9°C° 0 mm 2 mps 767 mmHg 94%
    Show more